{"data":{"norad_id":46495,"epoch":"2026-09-20T00:25:08.269248Z","epoch_age_seconds":55998,"freshness":"FRESH","line1":"1 46495U 20068K   26263.01745682  .00005124  00000+0  17393-3 0  9993","line2":"2 46495  97.8892 271.9626 0008600 339.9405  20.1496 15.30977638329862","mean_motion":15.30977638,"eccentricity":0.00086,"inclination_deg":97.8892,"raan_deg":271.9626,"arg_perigee_deg":339.9405,"mean_anomaly_deg":20.1496,"bstar":0.00017393,"rev_number":32986,"period_min":94.057546253984,"perigee_km":467.00227858221,"apogee_km":478.78605218667,"semimajor_km":6851.0311653844,"source":"CELESTRAK","updated_at":"2026-09-20T09:00:47.585322Z"}}